Location: Prostejov
(49.4670°N, 17.1170°E)
Time: 15:27:04
(UTC+02:00)

ISS - Visible Passes

Search period start: 20 July 2019 00:00
Search period end: 30 July 2019 00:00
Orbit: 409 x 418 km, 51.6° (Epoch: 20 July)

Date Brightness Start Highest point End Pass type
(mag) Time Alt. Az. Time Alt. Az. Time Alt. Az.
20 Jul -3.8 01:29:36 10° WNW 01:32:56 79° NNE 01:36:15 10° ESE visible
20 Jul -2.9 03:06:29 10° W 03:11:55 13° SSE 03:12:19 10° SSE visible
20 Jul -3.5 21:26:50 10° SW 21:30:02 45° SSE 21:33:15 10° ENE visible
20 Jul -3.4 23:03:21 10° W 23:06:41 64° N 23:10:00 10° ENE visible
21 Jul -3.4 00:40:16 10° WNW 00:43:35 65° N 00:45:17 26° E visible
21 Jul -1.8 02:17:02 10° WNW 02:18:01 17° W 02:18:01 17° W visible
21 Jul -3.6 22:13:59 10° WSW 22:17:20 77° NNW 22:20:40 10° ENE visible
21 Jul -3.2 23:50:54 10° WNW 23:54:13 58° N 23:56:37 17° E visible
22 Jul -2.4 01:27:39 10° WNW 01:29:24 28° W 01:29:24 28° W visible
22 Jul -3.8 21:24:38 10° WSW 21:27:59 83° SSE 21:31:20 10° ENE visible
22 Jul -3.1 23:01:30 10° W 23:04:49 56° N 23:08:06 10° E visible
23 Jul -3.6 00:38:18 10° WNW 00:41:10 63° WNW 00:41:10 63° WNW visible
23 Jul -3.2 22:12:05 10° W 22:15:24 59° N 22:18:42 10° ENE visible
23 Jul -3.7 23:48:57 10° WNW 23:52:18 74° NNE 23:53:07 47° E visible
24 Jul -1.0 01:25:47 10° W 01:25:55 11° W 01:25:55 11° W visible
24 Jul -3.4 21:22:40 10° W 21:26:00 67° N 21:29:19 10° ENE visible
24 Jul -3.4 22:59:34 10° WNW 23:02:53 63° N 23:05:08 19° E visible
25 Jul -2.1 00:36:20 10° WNW 00:37:56 25° W 00:37:56 25° W visible
25 Jul -3.2 22:10:09 10° WNW 22:13:28 57° N 22:16:46 10° E visible
25 Jul -3.8 23:46:55 10° WNW 23:50:00 66° WSW 23:50:00 66° WSW visible
26 Jul -3.1 21:20:43 10° W 21:24:01 57° N 21:27:19 10° ENE visible
26 Jul -3.9 22:57:31 10° WNW 23:00:53 88° NNE 23:02:07 36° ESE visible
27 Jul -1.2 00:34:31 10° W 00:34:56 12° W 00:34:56 12° W visible
27 Jul -3.6 22:08:07 10° WNW 22:11:28 71° NNE 22:14:16 14° E visible
27 Jul -2.4 23:44:56 10° W 23:47:04 29° WSW 23:47:04 29° WSW visible
28 Jul -3.3 21:18:41 10° WNW 21:22:01 61° N 21:25:20 10° E visible
28 Jul -3.6 22:55:27 10° WNW 22:58:43 53° SSW 22:59:14 47° S visible
29 Jul -3.8 22:06:00 10° WNW 22:09:21 76° SSW 22:11:26 21° ESE visible
29 Jul -1.4 23:43:15 10° W 23:44:15 15° WSW 23:44:15 15° WSW visible
